TimePDT,TemperatureF,Dew PointF,Humidity,Sea Level PressureIn,VisibilityMPH,Wind Direction,Wind SpeedMPH,Gust SpeedMPH,PrecipitationIn,Events,Conditions,WindDirDegrees,DateUTC
12:56 AM,68.0,43.0,40,29.77,10.0,SSW,10.4,-,N/A,,Clear,210,2013-10-02 07:56:00
1:56 AM,66.0,42.1,42,29.78,10.0,SSW,9.2,-,N/A,,Clear,200,2013-10-02 08:56:00
2:56 AM,64.0,42.1,45,29.78,10.0,SSW,5.8,-,N/A,,Clear,210,2013-10-02 09:56:00
3:56 AM,63.0,44.1,50,29.78,10.0,South,6.9,-,N/A,,Clear,190,2013-10-02 10:56:00
4:56 AM,59.0,42.1,53,29.78,10.0,ESE,3.5,-,N/A,,Clear,110,2013-10-02 11:56:00
5:56 AM,57.0,41.0,55,29.80,10.0,SW,3.5,-,N/A,,Clear,220,2013-10-02 12:56:00
6:56 AM,55.0,41.0,59,29.83,10.0,Variable,3.5,-,N/A,,Partly Cloudy,0,2013-10-02 13:56:00
7:56 AM,61.0,44.1,54,29.85,10.0,Variable,3.5,-,N/A,,Clear,0,2013-10-02 14:56:00
8:56 AM,66.0,45.0,47,29.85,10.0,Calm,Calm,-,N/A,,Clear,0,2013-10-02 15:56:00
9:56 AM,69.1,45.0,42,29.84,10.0,Calm,Calm,-,N/A,,Clear,0,2013-10-02 16:56:00
10:56 AM,75.0,45.0,34,29.83,10.0,Calm,Calm,-,N/A,,Clear,0,2013-10-02 17:56:00
11:56 AM,82.0,45.0,27,29.80,10.0,Variable,5.8,-,N/A,,Clear,0,2013-10-02 18:56:00
12:56 PM,87.1,37.0,17,29.75,10.0,SSW,9.2,17.3,N/A,,Partly Cloudy,210,2013-10-02 19:56:00
1:56 PM,89.1,37.0,16,29.72,10.0,SSW,18.4,26.5,N/A,,Partly Cloudy,210,2013-10-02 20:56:00
2:56 PM,90.0,33.1,13,29.69,10.0,SSW,21.9,33.4,N/A,,Partly Cloudy,200,2013-10-02 21:56:00
3:56 PM,88.0,35.1,15,29.68,10.0,SW,19.6,33.4,N/A,,Scattered Clouds,220,2013-10-02 22:56:00
4:56 PM,84.0,35.1,17,29.67,10.0,SSW,25.3,32.2,N/A,,Scattered Clouds,210,2013-10-02 23:56:00
5:56 PM,80.1,39.0,23,29.70,10.0,SW,25.3,32.2,N/A,,Partly Cloudy,220,2013-10-03 00:56:00
6:56 PM,75.9,39.0,26,29.71,10.0,SSW,9.2,-,N/A,,Clear,200,2013-10-03 01:56:00
7:56 PM,73.9,37.0,26,29.70,10.0,SSW,13.8,-,N/A,,Clear,200,2013-10-03 02:56:00
8:56 PM,73.9,37.0,26,29.71,10.0,West,15.0,-,N/A,,Clear,260,2013-10-03 03:56:00
9:56 PM,72.0,37.0,28,29.73,10.0,West,15.0,-,N/A,,Clear,280,2013-10-03 04:56:00
10:56 PM,69.1,36.0,30,29.73,10.0,WSW,9.2,-,N/A,,Clear,250,2013-10-03 05:56:00
11:56 PM,66.9,37.0,33,29.73,10.0,SSW,6.9,-,N/A,,Clear,200,2013-10-03 06:56:00